Tracking 29777 objects as of 7-Oct-2024
HD Live streaming from Space Station
objects crossing your sky now

STARLINK-5034

Track STARLINK-5034 now!
10-day predictions
STARLINK-5034 is classified as:


NORAD ID: 53888
Int'l Code: 2022-119C
Perigee: 545.9 km
Apogee: 547.8 km
Inclination: 53.2 °
Period: 95.4 minutes
Semi major axis: 6917 km
RCS: Unknown
Launch date: September 24, 2022
Source: United States (US)
Launch site: AIR FORCE EASTERN TEST RANGE (AFETR)
Your satellite tracking list
Your tracking list is empty




NASA's NSSDC Master Catalog

Two Line Element Set (TLE):
1 53888U 22119C   24280.31296654  .00000868  00000-0  72628-4 0  9990
2 53888  53.2166 135.8859 0001400  97.3832 262.7320 15.08848587113273
Source of the keplerian elements: AFSPC